Weather History for Kirksville, MO

Change the Weather History Date:

Wednesday, January 9, 2013

  Actual Average Record
Temperature  
Mean Temperature 40 °F 26 °F  
Max Temperature 53 °F 35 °F 62 °F (1939)
Min Temperature 27 °F 17 °F -11 °F (1977)
Degree Days  
Heating Degree Days 25 39  
Month to date heating degree days 345 351  
Since 1 July heating degree days 2587 2694  
Cooling Degree Days 0 0  
Month to date cooling degree days 0 0  
Year to date cooling degree days 0 0  
Moisture  
Dew Point 27 °F    
Average Humidity 56    
Maximum Humidity 85    
Minimum Humidity 26    
Precipitation  
Precipitation 0.00 in 0.02 in 1.30 in (1930)
Month to date precipitation 0.06 0.28  
Year to date precipitation 0.06 0.28  
Sea Level Pressure  
Sea Level Pressure 30.38 in    
Wind  
Wind Speed 6 mph (West)    
Max Wind Speed 13 mph    
Max Gust Speed 17 mph    
Visibility 10 miles    
Events      
T = Trace of Precipitation, MM = Missing Value Source: NWS Daily Summary

Daily Weather History Graph

Daily Weather History Graph

Search for Another Location

Airport:

Trip Planner

Search our weather history database for the weather conditions in past years. The results will help you decide how hot, cold, wet, or windy it might be!

Date:

Astronomy

Jan. 09, 2013 Rise Set
Actual Time 7:32 AM CST 5:03 PM CST
Civil Twilight 7:01 AM CST 5:33 PM CST
Nautical Twilight 6:28 AM CST 6:06 PM CST
Astronomical Twilight 5:55 AM CST 6:39 PM CST
Moon 5:11 AM CST (1/9) 3:05 PM CST (1/9)
Length of Visible Light 10h 31m
Length of Day
9h 31m
Waning Crescent, 6% of the Moon is Illuminated
Jan 9
Waning Crescent
Jan 11
New
Jan 18
First Quarter
Jan 26
Full
Feb 3
Last Quarter

Hourly Weather History & Observations

Time (CST) Temp. Windchill Dew Point Humidity Pressure Visibility Wind Dir Wind Speed Gust Speed Precip Events Conditions
12:55 AM 39.0 °F 32.8 °F 30.9 °F 73% 30.18 in 10.0 mi West 9.2 mph - N/A   Clear
1:55 AM 37.0 °F 31.6 °F 30.0 °F 76% 30.21 in 10.0 mi West 6.9 mph - N/A   Clear
2:55 AM 36.0 °F 31.1 °F 28.9 °F 76% 30.24 in 10.0 mi West 5.8 mph - N/A   Clear
3:55 AM 35.1 °F 31.0 °F 28.9 °F 78% 30.26 in 10.0 mi WSW 4.6 mph - N/A   Clear
4:55 AM 33.1 °F 30.0 °F 28.0 °F 82% 30.29 in 10.0 mi WSW 3.5 mph - N/A   Clear
5:55 AM 30.0 °F 26.5 °F 27.0 °F 88% 30.31 in 10.0 mi WSW 3.5 mph - N/A   Clear
6:55 AM 30.2 °F 24.3 °F 26.6 °F 86% 30.29 in 10.0 mi West 5.8 mph - N/A   Clear
7:55 AM 32.0 °F 26.4 °F 28.0 °F 85% 30.37 in 10.0 mi NW 5.8 mph - N/A   Clear
8:55 AM 33.8 °F 28.6 °F 28.4 °F 81% 30.36 in 10.0 mi West 5.8 mph - N/A   Clear
9:55 AM 37.9 °F 32.7 °F 30.9 °F 76% 30.44 in 10.0 mi WNW 6.9 mph - N/A   Clear
10:55 AM 44.1 °F 40.1 °F 32.0 °F 63% 30.45 in 10.0 mi NW 6.9 mph - N/A   Clear
11:55 AM 46.9 °F - 33.1 °F 59% 30.44 in 10.0 mi NW 8.1 mph - N/A   Clear
12:55 PM 51.1 °F - 30.0 °F 44% 30.42 in 10.0 mi NW 6.9 mph - N/A   Clear
1:55 PM 52.0 °F - 28.0 °F 40% 30.42 in 10.0 mi North 9.2 mph - N/A   Clear
2:55 PM 53.1 °F - 19.9 °F 27% 30.43 in 10.0 mi North 5.8 mph - N/A   Clear
3:55 PM 51.1 °F - 24.1 °F 35% 30.44 in 10.0 mi ENE 3.5 mph - N/A   Clear
4:55 PM 46.9 °F - 23.0 °F 39% 30.45 in 10.0 mi Calm Calm - N/A   Clear
5:55 PM 39.0 °F 35.7 °F 25.0 °F 57% 30.45 in 10.0 mi ESE 4.6 mph - N/A   Clear
6:55 PM 39.0 °F 34.8 °F 23.0 °F 53% 30.48 in 10.0 mi SE 5.8 mph - N/A   Clear
7:55 PM 39.2 °F 34.2 °F 24.8 °F 56% 30.43 in 10.0 mi ESE 6.9 mph - N/A   Clear
8:55 PM 37.9 °F 32.7 °F 26.1 °F 62% 30.48 in 10.0 mi ESE 6.9 mph - N/A   Clear
9:55 PM 37.0 °F 31.0 °F 27.0 °F 67% 30.48 in 10.0 mi ESE 8.1 mph - N/A   Clear
10:55 PM 35.1 °F 31.0 °F 28.0 °F 76% 30.46 in 10.0 mi ESE 4.6 mph - N/A   Clear
11:55 PM 33.1 °F 27.7 °F 27.0 °F 78% 30.45 in 10.0 mi SE 5.8 mph - N/A   Clear